KD9JB-1 Weather Reports


Display with metric or nautical units.
time (UTC)temp
F
wind
direction
speed
MPH
gust
MPH
rain 1hr
in
rain 24hr
in
rain mn
in
humidity
%
barometer
mb
20260905195647 100 317 4.0 8.0 0.00 0.00 0.00 41 1010.2
20260905195147 99 15 3.0 6.0 0.00 0.00 0.00 44 1010.2
20260905194647 100 331 3.0 8.0 0.00 0.00 0.00 41 1010.2
20260905194147 100 353 2.0 7.0 0.00 0.00 0.00 43 1010.3
20260905193647 99 340 3.0 4.0 0.00 0.00 0.00 43 1010.4
20260905193147 99 279 3.0 7.0 0.00 0.00 0.00 43 1010.5
20260905192647 100 301 3.0 6.0 0.00 0.00 0.00 43 1010.6
20260905192147 99 1 3.0 5.0 0.00 0.00 0.00 46 1010.6
20260905191647 99 53 3.0 6.0 0.00 0.00 0.00 45 1010.6
20260905191147 100 1 2.0 4.0 0.00 0.00 0.00 45 1010.6
20260905190647 101 68 3.0 7.0 0.00 0.00 0.00 44 1010.6
20260905190147 101 347 3.0 8.0 0.00 0.00 0.00 41 1010.7
20260905185647 100 300 3.0 6.0 0.00 0.00 0.00 42 1010.9
20260905185147 98 241 3.0 6.0 0.00 0.00 0.00 44 1011.0
20260905184647 97 13 4.0 6.0 0.00 0.00 0.00 44 1011.1
20260905184147 98 121 4.0 9.0 0.00 0.00 0.00 43 1011.2
20260905183647 100 341 3.0 8.0 0.00 0.00 0.00 43 1011.3
20260905183147 100 56 3.0 6.0 0.00 0.00 0.00 45 1011.2
20260905182647 99 305 3.0 7.0 0.00 0.00 0.00 45 1011.2
20260905182147 99 1 4.0 7.0 0.00 0.00 0.00 44 1011.3
20260905181647 99 58 5.0 12.0 0.00 0.00 0.00 46 1011.5
20260905181147 99 46 5.0 10.0 0.00 0.00 0.00 45 1011.4
20260905180647 100 329 4.0 9.0 0.00 0.00 0.00 44 1011.5
20260905180147 100 269 3.0 9.0 0.00 0.00 0.00 44 1011.5
20260905175647 99 20 3.0 5.0 0.00 0.00 0.00 46 1011.5
20260905175147 99 324 4.0 9.0 0.00 0.00 0.00 45 1011.5
20260905174647 99 336 4.0 8.0 0.00 0.00 0.00 45 1011.5
20260905174147 98 347 4.0 12.0 0.00 0.00 0.00 45 1011.7
20260905173647 98 321 5.0 12.0 0.00 0.00 0.00 48 1011.7
20260905173147 98 203 4.0 10.0 0.00 0.00 0.00 47 1011.8
20260905172647 97 319 3.0 9.0 0.00 0.00 0.00 48 1011.9
20260905172147 97 53 3.0 8.0 0.00 0.00 0.00 48 1011.9
20260905171647 97 56 4.0 8.0 0.00 0.00 0.00 51 1012.0
20260905171147 98 354 3.0 10.0 0.00 0.00 0.00 47 1012.1
20260905170647 98 341 2.0 9.0 0.00 0.00 0.00 52 1012.2
20260905170147 97 283 3.0 8.0 0.00 0.00 0.00 50 1012.2
20260905165647 97 65 3.0 8.0 0.00 0.00 0.00 50 1012.3
20260905165147 97 269 3.0 4.0 0.00 0.00 0.00 51 1012.3
20260905164647 97 342 3.0 5.0 0.00 0.00 0.00 49 1012.4
20260905164147 97 343 3.0 7.0 0.00 0.00 0.00 51 1012.4
20260905163647 96 324 3.0 9.0 0.00 0.00 0.00 52 1012.4
20260905163147 95 15 3.0 5.0 0.00 0.00 0.00 52 1012.4
20260905162647 95 163 3.0 7.0 0.00 0.00 0.00 52 1012.5
20260905162147 95 351 2.0 6.0 0.00 0.00 0.00 54 1012.7
20260905161647 95 56 3.0 5.0 0.00 0.00 0.00 53 1012.8
20260905161147 95 319 3.0 8.0 0.00 0.00 0.00 54 1012.9
20260905160647 95 343 2.0 9.0 0.00 0.00 0.00 54 1013.0
20260905160147 95 334 3.0 6.0 0.00 0.00 0.00 53 1013.1
20260905155647 95 316 4.0 10.0 0.00 0.00 0.00 54 1013.2
20260905155147 95 353 3.0 6.0 0.00 0.00 0.00 54 1013.0
20260905154647 95 318 3.0 5.0 0.00 0.00 0.00 54 1013.1
20260905154147 95 1 3.0 8.0 0.00 0.00 0.00 54 1013.2
20260905153647 95 323 2.0 8.0 0.00 0.00 0.00 53 1013.2
20260905153147 94 331 3.0 6.0 0.00 0.00 0.00 55 1013.1
20260905152647 94 295 2.0 6.0 0.00 0.00 0.00 56 1013.0
20260905152147 93 324 3.0 7.0 0.00 0.00 0.00 55 1012.9
20260905151647 93 329 3.0 6.0 0.00 0.00 0.00 56 1012.9
20260905151147 93 8 3.0 7.0 0.00 0.00 0.00 56 1013.0
20260905150647 92 89 3.0 7.0 0.00 0.00 0.00 58 1013.0
20260905150147 92 293 3.0 5.0 0.00 0.00 0.00 59 1013.1
20260905145647 91 193 3.0 6.0 0.00 0.00 0.00 58 1013.1
20260905145147 91 318 2.0 7.0 0.00 0.00 0.00 58 1013.2
20260905144647 91 20 3.0 6.0 0.00 0.00 0.00 59 1013.1
20260905144147 90 336 2.0 5.0 0.00 0.00 0.00 59 1013.2
20260905143647 90 344 3.0 5.0 0.00 0.00 0.00 61 1013.1
20260905143147 89 315 3.0 6.0 0.00 0.00 0.00 62 1013.1
20260905142647 88 304 3.0 7.0 0.00 0.00 0.00 62 1013.1
20260905142147 88 353 3.0 7.0 0.00 0.00 0.00 62 1013.1
20260905141647 88 27 2.0 5.0 0.00 0.00 0.00 63 1013.1
20260905141147 87 306 2.0 6.0 0.00 0.00 0.00 65 1013.0
20260905140647 87 295 2.0 3.0 0.00 0.00 0.00 66 1013.0
20260905140147 87 269 2.0 4.0 0.00 0.00 0.00 68 1013.0
20260905135647 86 314 2.0 4.0 0.00 0.00 0.00 68 1013.1
20260905135147 86 353 2.0 4.0 0.00 0.00 0.00 68 1013.1
20260905134647 85 223 1.0 3.0 0.00 0.00 0.00 72 1013.2
20260905134147 84 216 1.0 2.0 0.00 0.00 0.00 73 1013.2
20260905133647 84 178 1.0 2.0 0.00 0.00 0.00 73 1013.2
20260905133147 83 89 1.0 3.0 0.00 0.00 0.00 72 1013.3
20260905132647 83 178 1.0 3.0 0.00 0.00 0.00 74 1013.4
20260905132147 82 223 1.0 2.0 0.00 0.00 0.00 75 1013.3
20260905131647 81 223 1.0 2.0 0.00 0.00 0.00 77 1013.4
20260905131147 81 223 1.0 2.0 0.00 0.00 0.00 79 1013.4
20260905130647 81 213 2.0 2.0 0.00 0.00 0.00 79 1013.4
20260905130147 80 156 2.0 3.0 0.00 0.00 0.00 80 1013.4
20260905125647 80 72 2.0 3.0 0.00 0.00 0.00 81 1013.4
20260905125147 79 117 2.0 4.0 0.00 0.00 0.00 82 1013.4
20260905124647 79 102 2.0 4.0 0.00 0.00 0.00 83 1013.5
20260905124147 79 79 2.0 3.0 0.00 0.00 0.00 84 1013.5
20260905123647 78 105 2.0 4.0 0.00 0.00 0.00 84 1013.5
20260905123147 78 89 2.0 4.0 0.00 0.00 0.00 85 1013.6
20260905122647 78 79 2.0 4.0 0.00 0.00 0.00 85 1013.5
20260905122147 77 76 2.0 3.0 0.00 0.00 0.00 85 1013.5
20260905121647 77 68 2.0 3.0 0.00 0.00 0.00 86 1013.4
20260905121147 77 81 2.0 4.0 0.00 0.00 0.00 86 1013.3
20260905120647 77 102 2.0 4.0 0.00 0.00 0.00 85 1013.3
20260905120147 78 105 1.0 3.0 0.00 0.00 0.00 84 1013.2
20260905115647 77 89 1.0 2.0 0.00 0.00 0.00 85 1013.1
20260905115147 77 145 1.0 2.0 0.00 0.00 0.00 85 1013.0
20260905114647 77 178 1.0 2.0 0.00 0.00 0.00 85 1013.0
20260905114147 77 46 1.0 1.0 0.00 0.00 0.00 85 1013.0
20260905113647 77 269 1.0 2.0 0.00 0.00 0.00 84 1013.0
20260905113148 77 46 1.0 2.0 0.00 0.00 0.00 86 1012.9
20260905112648 77 46 0.0 1.0 0.00 0.00 0.00 86 1012.9
20260905112147 76 46 0.0 2.0 0.00 0.00 0.00 87 1012.8
20260905111648 76 1 0.0 1.0 0.00 0.00 0.00 88 1012.8
20260905111148 76 46 1.0 2.0 0.00 0.00 0.00 88 1012.7
20260905110647 76 46 1.0 2.0 0.00 0.00 0.00 88 1012.7
20260905110148 76 269 0.0 1.0 0.00 0.00 0.00 88 1012.7
20260905105648 76 63 0.0 1.0 0.00 0.00 0.00 88 1012.6
20260905105148 76 46 0.0 1.0 0.00 0.00 0.00 88 1012.5
20260905104648 76 46 1.0 2.0 0.00 0.00 0.00 87 1012.5
20260905104148 77 72 1.0 2.0 0.00 0.00 0.00 87 1012.5
20260905103648 76 46 1.0 2.0 0.00 0.00 0.00 88 1012.4
20260905103148 76 314 1.0 2.0 0.00 0.00 0.00 88 1012.4
20260905102648 76 295 1.0 2.0 0.00 0.00 0.00 87 1012.5
20260905102148 76 135 1.0 2.0 0.00 0.00 0.00 87 1012.6
20260905101648 77 178 1.0 2.0 0.00 0.00 0.00 87 1012.6
20260905101148 76 46 1.0 1.0 0.00 0.00 0.00 87 1012.6
20260905100648 77 46 1.0 2.0 0.00 0.00 0.00 86 1012.5
20260905100148 77 269 1.0 2.0 0.00 0.00 0.00 86 1012.5
20260905095648 77 89 1.0 2.0 0.00 0.00 0.00 86 1012.5
20260905095148 77 117 1.0 2.0 0.00 0.00 0.00 85 1012.4
20260905094648 77 178 1.0 2.0 0.00 0.00 0.00 86 1012.4
20260905094148 77 135 1.0 2.0 0.00 0.00 0.00 86 1012.4
20260905093648 77 72 1.0 2.0 0.00 0.00 0.00 87 1012.4
20260905093148 77 135 1.0 2.0 0.00 0.00 0.00 86 1012.3
20260905092648 77 178 1.0 2.0 0.00 0.00 0.00 85 1012.2
20260905092148 77 135 1.0 2.0 0.00 0.00 0.00 85 1012.2
20260905091648 77 269 1.0 2.0 0.00 0.00 0.00 84 1012.2
20260905091148 78 63 0.0 2.0 0.00 0.00 0.00 84 1012.1
20260905090648 77 46 0.0 1.0 0.00 0.00 0.00 84 1012.1
20260905090148 78 46 0.0 1.0 0.00 0.00 0.00 83 1012.0
20260905085648 78 1 1.0 2.0 0.00 0.00 0.00 83 1012.0
20260905085148 78 32 0.0 2.0 0.00 0.00 0.00 83 1011.9
20260905084648 78 1 0.0 2.0 0.00 0.00 0.00 83 1011.9
20260905084148 78 1 0.0 2.0 0.00 0.00 0.00 85 1011.9
20260905083648 78 178 0.0 1.0 0.00 0.00 0.00 85 1011.9
20260905083148 78 46 0.0 1.0 0.00 0.00 0.00 85 1011.9
20260905082648 78 135 0.0 1.0 0.00 0.00 0.00 85 1011.9
20260905082148 78 178 0.0 1.0 0.00 0.00 0.00 84 1012.0
20260905081648 78 117 0.0 1.0 0.00 0.00 0.00 84 1012.0
20260905081148 78 178 0.0 1.0 0.00 0.00 0.00 84 1012.0
20260905080648 78 46 0.0 2.0 0.00 0.00 0.00 84 1012.0
20260905080148 78 135 1.0 2.0 0.00 0.00 0.00 85 1012.1
20260905075648 78 89 0.0 1.0 0.00 0.00 0.00 85 1012.1
20260905075148 78 178 0.0 1.0 0.00 0.00 0.00 85 1012.1
20260905074648 78 46 0.0 1.0 0.00 0.00 0.00 85 1012.1
20260905074148 78 314 0.0 2.0 0.00 0.00 0.00 85 1012.1
20260905073648 78 63 0.0 1.0 0.00 0.00 0.00 86 1012.2
20260905073148 78 46 0.0 1.0 0.00 0.00 0.00 85 1012.3
20260905072648 78 117 0.0 1.0 0.00 0.00 0.00 86 1012.4
20260905072148 78 89 1.0 1.0 0.00 0.00 0.00 86 1012.4
20260905071648 78 223 1.0 2.0 0.00 0.00 0.00 86 1012.4
20260905071148 78 178 1.0 2.0 0.00 0.00 0.00 86 1012.4
20260905070648 79 223 1.0 2.0 0.00 0.00 0.00 85 1012.4
20260905070149 79 223 1.0 2.0 0.00 0.00 0.00 85 1012.4
20260905065648 79 178 1.0 2.0 0.00 0.00 0.00 84 1012.4
20260905065148 79 206 1.0 2.0 0.00 0.00 0.00 83 1012.4
20260905064648 80 46 1.0 2.0 0.00 0.00 0.00 83 1012.5
20260905064148 80 89 1.0 1.0 0.00 0.00 0.00 82 1012.4
20260905063648 80 314 1.0 2.0 0.00 0.00 0.00 82 1012.5
20260905063148 80 117 1.0 2.0 0.00 0.00 0.00 82 1012.5
20260905062648 80 89 1.0 2.0 0.00 0.00 0.00 82 1012.6
20260905062148 80 135 1.0 2.0 0.00 0.00 0.00 82 1012.6
20260905061648 80 89 1.0 2.0 0.00 0.00 0.00 82 1012.6
20260905061148 80 46 0.0 1.0 0.00 0.00 0.00 82 1012.7
20260905060648 80 46 0.0 1.0 0.00 0.00 0.00 82 1012.7
20260905060148 80 269 1.0 1.0 0.00 0.00 0.00 82 1012.7
20260905055648 80 1 1.0 2.0 0.00 0.00 0.00 82 1012.7
20260905055148 80 1 1.0 2.0 0.00 0.00 0.00 82 1012.7
20260905054648 80 1 1.0 1.0 0.00 0.00 0.00 82 1012.6
20260905054148 80 269 1.0 1.0 0.00 0.00 0.00 82 1012.7
20260905053648 80 46 1.0 2.0 0.00 0.00 0.00 81 1012.7
20260905053148 81 269 0.0 2.0 0.00 0.00 0.00 81 1012.7
20260905052648 81 178 0.0 1.0 0.00 0.00 0.00 80 1012.8
20260905052148 81 89 1.0 1.0 0.00 0.00 0.00 80 1012.8
20260905051648 81 135 1.0 2.0 0.00 0.00 0.00 80 1012.7
20260905051148 81 139 1.0 2.0 0.00 0.00 0.00 80 1012.7
20260905050648 81 135 0.0 1.0 0.00 0.00 0.00 80 1012.8
20260905050148 81 46 0.0 1.0 0.00 0.00 0.00 80 1012.8
20260905045648 81 46 0.0 1.0 0.00 0.00 0.00 79 1012.8
20260905045148 81 46 0.0 1.0 0.00 0.00 0.00 79 1012.8
20260905044648 81 46 0.0 1.0 0.00 0.00 0.00 78 1012.9
20260905044148 82 1 0.0 2.0 0.00 0.00 0.00 77 1012.9
20260905043648 82 331 1.0 2.0 0.00 0.00 0.00 75 1012.9
20260905043148 83 135 1.0 2.0 0.00 0.00 0.00 75 1012.9
20260905042648 83 46 1.0 2.0 0.00 0.00 0.00 74 1012.8
20260905042148 83 178 1.0 2.0 0.00 0.00 0.00 74 1012.8
20260905041648 83 178 1.0 2.0 0.00 0.00 0.00 74 1012.8
20260905041148 83 89 1.0 2.0 0.00 0.00 0.00 74 1012.9
20260905040648 83 135 1.0 2.0 0.00 0.00 0.00 74 1012.9
20260905040148 83 124 1.0 2.0 0.00 0.00 0.00 74 1012.9
20260905035648 83 117 1.0 2.0 0.00 0.00 0.00 75 1012.9
20260905035148 83 89 1.0 2.0 0.00 0.00 0.00 76 1012.8
20260905034649 83 46 1.0 2.0 0.00 0.00 0.00 75 1012.9
20260905034148 84 135 1.0 2.0 0.00 0.00 0.00 73 1012.9
20260905033648 84 178 1.0 2.0 0.00 0.00 0.00 74 1012.8
20260905033148 84 117 1.0 2.0 0.00 0.00 0.00 74 1012.9
20260905032648 83 108 1.0 2.0 0.00 0.00 0.00 75 1012.8
20260905032148 83 178 1.0 2.0 0.00 0.00 0.00 75 1012.9
20260905031648 83 89 1.0 2.0 0.00 0.00 0.00 75 1012.9
20260905031148 83 46 1.0 2.0 0.00 0.00 0.00 75 1013.0
20260905030648 83 178 1.0 2.0 0.00 0.00 0.00 75 1012.9
20260905030148 84 314 1.0 1.0 0.00 0.00 0.00 74 1012.8
20260905025648 84 1 1.0 1.0 0.00 0.00 0.00 74 1012.9
20260905025148 84 178 0.0 1.0 0.00 0.00 0.00 75 1012.8
20260905024648 84 1 0.0 1.0 0.00 0.00 0.00 74 1012.8
20260905024148 84 89 1.0 2.0 0.00 0.00 0.00 73 1012.9
20260905023648 85 178 1.0 2.0 0.00 0.00 0.00 72 1012.9
20260905023148 85 135 1.0 2.0 0.00 0.00 0.00 72 1012.9
20260905022648 85 135 0.0 2.0 0.00 0.00 0.00 72 1012.9
20260905022148 84 178 0.0 2.0 0.00 0.00 0.00 74 1012.8
20260905021648 84 269 0.0 1.0 0.00 0.00 0.00 74 1012.8
20260905021148 84 46 0.0 1.0 0.00 0.00 0.00 74 1012.7
20260905020648 84 46 0.0 1.0 0.00 0.00 0.00 73 1012.8
20260905020148 84 46 1.0 1.0 0.00 0.00 0.00 73 1012.7
20260905015648 85 314 0.0 2.0 0.00 0.00 0.00 73 1012.6
20260905015148 85 269 0.0 1.0 0.00 0.00 0.00 72 1012.6
20260905014648 85 1 1.0 1.0 0.00 0.00 0.00 71 1012.5
20260905014148 85 296 1.0 2.0 0.00 0.00 0.00 70 1012.5
20260905013648 86 72 1.0 2.0 0.00 0.00 0.00 70 1012.5
20260905013148 86 178 1.0 2.0 0.00 0.00 0.00 69 1012.4
20260905012648 86 135 1.0 2.0 0.00 0.00 0.00 68 1012.4
20260905012148 87 135 1.0 2.0 0.00 0.00 0.00 67 1012.4
20260905011648 86 117 1.0 2.0 0.00 0.00 0.00 68 1012.3
20260905011148 87 223 1.0 2.0 0.00 0.00 0.00 67 1012.2
20260905010648 87 89 0.0 2.0 0.00 0.00 0.00 66 1012.2
20260905010148 87 89 1.0 1.0 0.00 0.00 0.00 66 1012.1
20260905005648 88 89 1.0 2.0 0.00 0.00 0.00 66 1012.0
20260905005148 88 46 1.0 2.0 0.00 0.00 0.00 65 1012.1
20260905004648 88 1 1.0 2.0 0.00 0.00 0.00 63 1012.0
20260905004148 89 89 1.0 2.0 0.00 0.00 0.00 63 1012.0
20260905003648 89 46 0.0 2.0 0.00 0.00 0.00 62 1012.0
20260905003148 90 135 0.0 1.0 0.00 0.00 0.00 61 1011.9
20260905002648 90 108 1.0 2.0 0.00 0.00 0.00 60 1011.9
20260905002148 90 135 1.0 2.0 0.00 0.00 0.00 59 1011.9
20260905001649 91 152 1.0 3.0 0.00 0.00 0.00 58 1011.9
20260905001148 91 89 1.0 2.0 0.00 0.00 0.00 58 1011.9
20260905000649 92 89 1.0 2.0 0.00 0.00 0.00 57 1011.8
20260905000148 92 135 1.0 2.0 0.00 0.00 0.00 56 1011.8
20260904235649 93 135 1.0 2.0 0.00 0.00 0.00 55 1011.8
20260904235149 93 89 1.0 2.0 0.00 0.00 0.00 55 1011.9
20260904234649 94 89 1.0 2.0 0.00 0.00 0.00 54 1011.8
20260904234149 94 124 1.0 2.0 0.00 0.00 0.00 52 1011.9
20260904233649 95 178 1.0 2.0 0.00 0.00 0.00 52 1012.0
20260904233149 96 178 2.0 4.0 0.00 0.00 0.00 50 1011.9
20260904232649 96 74 2.0 4.0 0.00 0.00 0.00 49 1012.0
20260904232149 96 89 1.0 4.0 0.00 0.00 0.00 48 1011.9
20260904231649 96 102 2.0 3.0 0.00 0.00 0.00 49 1011.9
20260904231149 96 105 2.0 3.0 0.00 0.00 0.00 48 1011.9
20260904230649 97 120 2.0 4.0 0.00 0.00 0.00 47 1011.9
20260904230149 96 46 2.0 3.0 0.00 0.00 0.00 48 1011.8
20260904225649 96 68 2.0 3.0 0.00 0.00 0.00 48 1011.8
20260904225149 96 89 2.0 3.0 0.00 0.00 0.00 48 1011.8
20260904224649 97 89 2.0 3.0 0.00 0.00 0.00 48 1011.7
20260904224149 97 110 2.0 4.0 0.00 0.00 0.00 47 1011.7
20260904223649 98 167 2.0 3.0 0.00 0.00 0.00 46 1011.7
20260904223149 98 82 2.0 4.0 0.00 0.00 0.00 47 1011.6
20260904222649 98 140 2.0 4.0 0.00 0.00 0.00 48 1011.7
20260904222149 97 67 1.0 4.0 0.00 0.00 0.00 48 1011.7
20260904221649 98 117 1.0 5.0 0.00 0.00 0.00 46 1011.6
20260904221149 99 18 1.0 3.0 0.00 0.00 0.00 43 1011.7
20260904220649 100 216 1.0 4.0 0.00 0.00 0.00 44 1011.7
20260904220149 100 74 2.0 5.0 0.00 0.00 0.00 42 1011.7
20260904215649 100 1 2.0 5.0 0.00 0.00 0.00 42 1011.7
20260904215149 100 46 2.0 7.0 0.00 0.00 0.00 43 1011.8
20260904214649 100 286 1.0 3.0 0.00 0.00 0.00 41 1011.8
20260904214149 100 178 1.0 2.0 0.00 0.00 0.00 43 1011.9
20260904213649 99 231 2.0 4.0 0.00 0.00 0.00 43 1011.9
20260904213149 100 178 2.0 3.0 0.00 0.00 0.00 43 1012.0
20260904212649 101 269 2.0 5.0 0.00 0.00 0.00 42 1012.0
20260904212149 100 89 2.0 5.0 0.00 0.00 0.00 43 1012.1
20260904211649 100 276 2.0 5.0 0.00 0.00 0.00 43 1012.1
20260904211149 99 63 2.0 4.0 0.00 0.00 0.00 43 1012.2
20260904210649 100 162 3.0 6.0 0.00 0.00 0.00 41 1012.3
20260904210149 100 72 2.0 5.0 0.00 0.00 0.00 43 1012.2
20260904205649 99 336 2.0 4.0 0.00 0.00 0.00 42 1012.2
20260904205150 100 211 3.0 6.0 0.00 0.00 0.00 43 1012.4
20260904204649 100 346 3.0 10.0 0.00 0.00 0.00 42 1012.4
20260904204149 99 292 3.0 5.0 0.00 0.00 0.00 43 1012.5
20260904203649 99 303 3.0 8.0 0.00 0.00 0.00 42 1012.6
20260904203149 98 25 2.0 5.0 0.00 0.00 0.00 44 1012.7
20260904202649 100 139 3.0 4.0 0.00 0.00 0.00 43 1012.8
20260904202149 100 46 3.0 7.0 0.00 0.00 0.00 43 1012.8
20260904201649 100 314 3.0 6.0 0.00 0.00 0.00 43 1012.9
20260904201149 99 1 3.0 7.0 0.00 0.00 0.00 43 1013.0
20260904200649 99 331 3.0 5.0 0.00 0.00 0.00 43 1013.1
20260904200149 99 323 4.0 9.0 0.00 0.00 0.00 42 1013.2